Погода в Охлях

Россия / Республика Дагестан     42°33′19″N   47°12′33″E
темп.,
°C
ветер,
м/с
пор.,
м/с
влажн.,
%
обл.,
%
осадки,
мм/ч
давл.,
гПа
погр.,
м
8 мая, сб
сб800:00+8с11887 0.0 101910
03:00+7ю11905 0.0 101910
06:00+9ю11820 0.0 101972
09:00+15вюв33570 0.0 1017992
12:00+18всв33475 0.0 10141506
15:00+18в435814 0.0 10131018
18:00+15в227374 0.0 1013221
21:00+12ю228312 0.0 101415
9 мая, вс
вс900:00+11юз22660 0.0 101216
03:00+9ююз22460 0.0 101117
06:00+11юз3252100 0.0 101050
09:00+17зюз1244100 0.0 1008289
12:00+21с333996 0.0 10051006
15:00+18ссв336151 0.0 1005592
18:00+14с2383100 0.7 1007213
21:00+12с1196100 2.1 1010112
10 мая, пн
пн1000:00+8ссз5593100 4.3 1011334
03:00+5сз4585100 6.4 1015373
06:00+2сз4598100 1.1 1019292
09:00+2з3498100 4.6 1021209
12:00+2з2295100 5.7 1021398
15:00+3зсз229589 6.9 1021384
18:00+4зсз128358 0.1 1021464
21:00+3юз118465 0.1 102284
11 мая, вт
вт1100:00+2юз118458 0.0 102222
03:00+1ююз22876 0.0 102114
06:00+2ююв12805 0.0 1021114
09:00+7вюв336939 0.0 1018856
12:00+8в3472100 0.0 1016925
15:00+8всв3475100 0.0 1016646
18:00+6в118129 0.0 1018347
21:00+3ю11910 0.0 101910
12 мая, ср
ср1200:00+4ю11913 0.0 101810
03:00+4ююв11880 0.0 101810
06:00+6ююв11800 0.0 101758
09:00+12всв21620 0.0 1015512
12:00+16св32570 0.0 1013697
15:00+16св326699 0.0 1012499
18:00+11ссв2284100 0.0 1014221
21:00+10в019098 0.0 101510